Retour au catalogue

STARLINK-31117

ActifCommunicationsVLEO
NORAD 58776·PAYLOAD·🇺🇸 United States

Lancé Jan 14, 2024 depuis Vandenberg Space Force Base

Loading…

Prochains Passages (prochaines 24 heures)

TLE

FraisSource: CelesTrak SupGP

Époque: Sep 15, 2026, 02:28 UTC

1 58776C 24011M   26258.10326389 -.00068050  00000+0 -20106-2 0  2585
2 58776  53.1587 212.6827 0001324  90.7661  31.0476 15.34424778    18

Suivez STARLINK-31117 en temps réel avec AllMySat

Download on the App Store